NOAA 16 DEB, 41413

Orbit data source: Space-Track

NOAA 16 DEB, 41413 is space debris in SSO originally from a launch on Thu, 21 Sep 2000 UTC launched from the Air Force Western Test Range (AFWTR). Debris objects in space refer to the collection of defunct objects orbiting the Earth. Examples of debris include non-operational satellites, rocket bodies, and fragments generated from explosions, collisions, or faulty payload assembly.

Loading next visibility...
Identifier
41413, 2000-055KS
Orbit
SSO
Country
Flag of USUS
Related business
Manufacturer
Unknown
Mission
Spacecraft
Bus & Motor
Unknown
Mass
Unknown
Launch date (UTC)
2000-09-21 (25 years ago)
Launch vehicle
Unknown
Launch site
Air Force Western Test Range (AFWTR)
Object type
Payload
Rocket body
Debris
Shape & HBR
Unknown shape, 0.1 m
Radar Cross Section
Small (<0.1 m²)

Expand to show TLE details & history
Last TLE update: 1 day ago

TLE from 1 day ago
0 NOAA 16 DEB
1 41413U 00055KS  25293.11696959  .00009759  00000-0  38689-2 0  9996
2 41413  98.6914 354.1013 0021435 133.1036 227.1943 14.28891171499913
Epoch: 2025-10-20T02:48Z
TLE epoch observation values (Epoch: 2025-10-20T02:48:26.172Z)
Latitude
-0.00005°
Longitude
-76.83163°
Altitude
808.835 km
Speed
7.443 km/s
True Right ascension
23h 36m 24s
True Declination
0° 00' 00"
Sunlit
Object was in full shadow at epoch
Visualization orbit readout
Latitude
Unknown
Longitude
Unknown
Altitude
Unknown
Speed
Unknown
Apparent Right ascension
Unknown
Apparent Declination
Unknown
Sunlit
N/A
Visualization observer readout
Local Sidereal Time
21:50:18
Azimuth
Unknown
Elevation
Unknown
Doppler factor
Unknown
Orbital elements
Apogee altitude
807.956 km
Perigee altitude
777.215 km
Semi-major axis
7,170.722 km
Eccentricity
0.00214
Inclination
98.6914°
RAAN
354.1013°
Arg. of periapsis
133.1036°
True anomaly
227.01442°
Mean anomaly
227.1943°
Eccentric anomaly
227.10433°
Mean motion
3.57436 °/min
Orbital period
100.72 mins
BSTAR
0.0038689
Loading maneuver chart data...
Computing Atmospheric mass density...
Loading historical data...
Loading historical data...
Loading historical data...
Loading historical data...
Loading historical data...
Loading historical data...
Loading historical data...

Documentation

Showing up to 5 results
|